Location: *
(60.1759°S, 155.0663°W)
Time: 13:21:54
(UTC+00:00)

Meteor 1-28 Rocket - Pass Details

Date: 17 September 2019
Orbit: 505 x 522 km, 97.3° (Epoch: 14 October)

Event Time Altitude Azimuth Distance (km) Brightness Sun altitude
Rises 15:26:08 0° 167° (SSE) 2,671 7.1 -7.9°
Reaches altitude 10° 15:28:17 10° 171° (S) 1,775 6.2 -7.7°
Maximum altitude 15:32:01 55° 248° (WSW) 636 3.3 -7.2°
Drops below altitude 10° 15:35:43 10° 325° (NW) 1,750 5.5 -6.8°
Sets 15:37:49 0° 329° (NNW) 2,629 6.4 -6.5°
